Station Historical Data
Daily Summary for April 15, 2017 Units:  English    Metric   Both
Next Day »
Daily Weekly Monthly Yearly Custom
  High: Low: Average:
Temperature: 60.9 °F 40.4 °F 49.6 °F
Dew Point: 45.6 °F 33.1 °F 39.4 °F
Humidity: 86% 47% 69%
Wind Speed: 14.0mph 0.0mph 1.7mph
Wind Gust: 19.0mph - -
Wind- - SE
Pressure: 30.19 in 30.02 in -
Precipitation: 0.00 in    
Historical Graphs
 
 
Tabular Data for April 15, 2017
Time Temperature Dew Point Pressure Wind Wind Speed Wind Gust Humidity Rainfall Rate (Hourly) solar Conditions
00:00 40.9 °F 37.0 °F 30.19 in Calm   6.0 mph 86% 0.00 in 0.00 W/m2
00:05 40.9 °F 37.0 °F 30.19 in Calm   8.0 mph 86% 0.00 in 0.00 W/m2
00:10 40.9 °F 37.0 °F 30.19 in East 2.0 mph 6.0 mph 86% 0.00 in 0.00 W/m2
00:15 40.9 °F 37.0 °F 30.19 in East 4.0 mph 7.0 mph 86% 0.00 in 0.00 W/m2
00:20 40.9 °F 36.8 °F 30.19 in ESE 4.0 mph 8.0 mph 85% 0.00 in 0.00 W/m2
00:25 40.9 °F 36.8 °F 30.19 in East 6.0 mph 8.0 mph 85% 0.00 in 0.00 W/m2
00:30 41.0 °F 36.8 °F 30.19 in East 4.0 mph 7.0 mph 85% 0.00 in 0.00 W/m2
00:35 41.1 °F 36.9 °F 30.19 in East 4.0 mph 6.0 mph 85% 0.00 in 0.00 W/m2
00:40 41.1 °F 36.9 °F 30.19 in Calm   6.0 mph 85% 0.00 in 0.00 W/m2
00:45 41.1 °F 36.6 °F 30.19 in Calm   5.0 mph 84% 0.00 in 0.00 W/m2
00:50 41.1 °F 36.6 °F 30.19 in Calm   7.0 mph 84% 0.00 in 0.00 W/m2
00:55 41.1 °F 36.6 °F 30.19 in East 5.0 mph 6.0 mph 84% 0.00 in 0.00 W/m2
01:00 41.1 °F 36.6 °F 30.18 in Calm   7.0 mph 84% 0.00 in 0.00 W/m2
01:05 41.1 °F 36.6 °F 30.19 in East 4.0 mph 6.0 mph 84% 0.00 in 0.00 W/m2
01:10 41.1 °F 36.6 °F 30.19 in Calm   6.0 mph 84% 0.00 in 0.00 W/m2
01:15 41.1 °F 36.6 °F 30.19 in Calm   7.0 mph 84% 0.00 in 0.00 W/m2
01:20 41.0 °F 36.2 °F 30.18 in Calm   5.0 mph 83% 0.00 in 0.00 W/m2
01:25 41.0 °F 36.2 °F 30.18 in East 5.0 mph 5.0 mph 83% 0.00 in 0.00 W/m2
01:30 40.9 °F 36.5 °F 30.18 in Calm   5.0 mph 84% 0.00 in 0.00 W/m2
01:35 40.9 °F 36.1 °F 30.18 in Calm   6.0 mph 83% 0.00 in 0.00 W/m2
01:40 40.9 °F 36.1 °F 30.18 in East 2.0 mph 8.0 mph 83% 0.00 in 0.00 W/m2
01:45 40.8 °F 36.0 °F 30.18 in East 1.0 mph 6.0 mph 83% 0.00 in 0.00 W/m2
01:50 40.8 °F 36.0 °F 30.17 in Calm   6.0 mph 83% 0.00 in 0.00 W/m2
01:51 40.8 °F 36.0 °F 30.17 in Calm     83% 0.00 in 0.00 W/m2
01:56 40.8 °F 36.3 °F 30.17 in Calm     84% 0.00 in 0.00 W/m2
02:02 40.7 °F 36.2 °F 30.17 in Calm   4.0 mph 84% 0.00 in 0.00 W/m2
02:06 40.7 °F 36.0 °F 30.17 in East 1.0 mph 2.0 mph 83% 0.00 in 0.00 W/m2
02:12 40.7 °F 36.0 °F 30.17 in Calm     83% 0.00 in 0.00 W/m2
02:17 40.6 °F 36.2 °F 30.17 in Calm   2.0 mph 84% 0.00 in 0.00 W/m2
02:22 40.6 °F 36.2 °F 30.17 in East 1.0 mph 2.0 mph 84% 0.00 in 0.00 W/m2
02:27 40.5 °F 35.8 °F 30.17 in ESE 1.0 mph 5.0 mph 83% 0.00 in 0.00 W/m2
02:32 40.5 °F 35.8 °F 30.17 in Calm   4.0 mph 83% 0.00 in 0.00 W/m2
02:37 40.4 °F 35.3 °F 30.16 in ESE 2.0 mph 4.0 mph 82% 0.00 in 0.00 W/m2
02:42 40.4 °F 35.3 °F 30.16 in East 5.0 mph 5.0 mph 82% 0.00 in 0.00 W/m2
02:47 40.4 °F 35.7 °F 30.16 in East 5.0 mph 7.0 mph 83% 0.00 in 0.00 W/m2
02:52 40.4 °F 35.3 °F 30.16 in Calm   12.0 mph 82% 0.00 in 0.00 W/m2
02:57 40.4 °F 35.3 °F 30.16 in Calm   6.0 mph 82% 0.00 in 0.00 W/m2
03:02 40.4 °F 35.0 °F 30.16 in East 4.0 mph 9.0 mph 81% 0.00 in 0.00 W/m2
03:07 40.4 °F 35.0 °F 30.16 in East 1.0 mph 5.0 mph 81% 0.00 in 0.00 W/m2
03:08 40.4 °F 35.0 °F 30.16 in East 1.0 mph 5.0 mph 81% 0.00 in 0.00 W/m2
03:13 40.4 °F 35.3 °F 30.16 in East 1.0 mph 5.0 mph 82% 0.00 in 0.00 W/m2
03:18 40.4 °F 35.0 °F 30.16 in East 2.0 mph 5.0 mph 81% 0.00 in 0.00 W/m2
03:19 40.4 °F 35.0 °F 30.16 in Calm   5.0 mph 81% 0.00 in 0.00 W/m2
03:24 40.4 °F 35.0 °F 30.16 in Calm   12.0 mph 81% 0.00 in 0.00 W/m2
03:29 40.4 °F 35.0 °F 30.16 in Calm   6.0 mph 81% 0.00 in 0.00 W/m2
03:34 40.4 °F 35.0 °F 30.16 in Calm   8.0 mph 81% 0.00 in 0.00 W/m2
03:39 40.5 °F 35.1 °F 30.15 in East 1.0 mph 12.0 mph 81% 0.00 in 0.00 W/m2
03:44 40.5 °F 35.1 °F 30.16 in East 5.0 mph 5.0 mph 81% 0.00 in 0.00 W/m2
03:49 40.5 °F 35.1 °F 30.16 in ESE 2.0 mph 6.0 mph 81% 0.00 in 0.00 W/m2
03:54 40.5 °F 35.1 °F 30.15 in East 1.0 mph 8.0 mph 81% 0.00 in 0.00 W/m2
03:59 40.5 °F 35.1 °F 30.15 in Calm   6.0 mph 81% 0.00 in 0.00 W/m2
04:04 40.5 °F 35.1 °F 30.15 in East 1.0 mph 7.0 mph 81% 0.00 in 0.00 W/m2
04:09 40.6 °F 34.9 °F 30.15 in Calm   8.0 mph 80% 0.00 in 0.00 W/m2
04:14 40.5 °F 34.8 °F 30.15 in East 4.0 mph 9.0 mph 80% 0.00 in 0.00 W/m2
04:24 40.6 °F 34.6 °F 30.15 in East 8.0 mph 11.0 mph 79% 0.00 in 0.00 W/m2
04:29 40.6 °F 34.6 °F 30.15 in Calm   8.0 mph 79% 0.00 in 0.00 W/m2
04:34 40.6 °F 34.6 °F 30.15 in East 5.0 mph 8.0 mph 79% 0.00 in 0.00 W/m2
04:39 40.6 °F 34.3 °F 30.15 in ESE 1.0 mph 16.0 mph 78% 0.00 in 0.00 W/m2
04:44 40.6 °F 34.3 °F 30.15 in East 4.0 mph 9.0 mph 78% 0.00 in 0.00 W/m2
04:49 40.6 °F 34.3 °F 30.15 in East 13.0 mph 18.0 mph 78% 0.00 in 0.00 W/m2
04:54 40.7 °F 34.4 °F 30.15 in East 1.0 mph 19.0 mph 78% 0.00 in 0.00 W/m2
04:59 40.7 °F 33.7 °F 30.14 in ESE 14.0 mph 18.0 mph 76% 0.00 in 0.00 W/m2
05:04 40.7 °F 34.1 °F 30.15 in East 2.0 mph 4.0 mph 77% 0.00 in 0.00 W/m2
05:09 40.8 °F 34.2 °F 30.15 in East 2.0 mph 14.0 mph 77% 0.00 in 0.00 W/m2
05:14 40.8 °F 33.8 °F 30.15 in ESE 2.0 mph 16.0 mph 76% 0.00 in 0.00 W/m2
05:19 40.8 °F 34.2 °F 30.14 in ESE 1.0 mph 12.0 mph 77% 0.00 in 0.00 W/m2
05:24 40.9 °F 33.9 °F 30.14 in Calm   8.0 mph 76% 0.00 in 0.00 W/m2
05:29 40.9 °F 34.3 °F 30.14 in Calm   15.0 mph 77% 0.00 in 0.00 W/m2
05:34 40.8 °F 34.2 °F 30.14 in ESE 6.0 mph 14.0 mph 77% 0.00 in 0.00 W/m2
05:39 40.8 °F 33.8 °F 30.14 in Calm   9.0 mph 76% 0.00 in 0.00 W/m2
05:44 40.8 °F 33.8 °F 30.14 in Calm   19.0 mph 76% 0.00 in 0.00 W/m2
05:49 40.8 °F 33.8 °F 30.14 in East 5.0 mph 15.0 mph 76% 0.00 in 0.00 W/m2
05:54 40.8 °F 33.8 °F 30.14 in East 8.0 mph 14.0 mph 76% 0.00 in 0.00 W/m2
06:00 40.8 °F 33.5 °F 30.15 in Calm   12.0 mph 75% 0.00 in 0.00 W/m2
06:04 40.8 °F 33.8 °F 30.15 in East 2.0 mph 15.0 mph 76% 0.00 in 0.00 W/m2
06:09 40.8 °F 33.8 °F 30.15 in Calm   15.0 mph 76% 0.00 in 0.00 W/m2
06:14 40.7 °F 33.4 °F 30.15 in ESE 6.0 mph 13.0 mph 75% 0.00 in 0.00 W/m2
06:20 40.7 °F 33.4 °F 30.15 in Calm   14.0 mph 75% 0.00 in 0.00 W/m2
06:25 40.7 °F 33.4 °F 30.15 in East 14.0 mph 14.0 mph 75% 0.00 in 5.00 W/m2
06:30 40.7 °F 33.1 °F 30.14 in ESE 9.0 mph 13.0 mph 74% 0.00 in 7.00 W/m2
06:35 40.7 °F 33.7 °F 30.15 in East 13.0 mph 14.0 mph 76% 0.00 in 12.00 W/m2
06:40 40.7 °F 33.4 °F 30.15 in East 8.0 mph 15.0 mph 75% 0.00 in 18.00 W/m2
06:45 40.7 °F 33.4 °F 30.15 in ESE 4.0 mph 14.0 mph 75% 0.00 in 26.00 W/m2
06:50 40.7 °F 33.4 °F 30.15 in ESE 7.0 mph 13.0 mph 75% 0.00 in 32.00 W/m2
06:55 40.7 °F 33.4 °F 30.15 in East 1.0 mph 14.0 mph 75% 0.00 in 40.00 W/m2
07:00 40.7 °F 33.4 °F 30.15 in ESE 9.0 mph 9.0 mph 75% 0.00 in 47.00 W/m2
07:05 40.7 °F 33.7 °F 30.15 in ESE 9.0 mph 13.0 mph 76% 0.00 in 56.00 W/m2
07:10 40.7 °F 34.1 °F 30.16 in Calm   16.0 mph 77% 0.00 in 63.00 W/m2
07:15 40.7 °F 33.4 °F 30.16 in Calm   13.0 mph 75% 0.00 in 72.00 W/m2
07:20 40.7 °F 33.4 °F 30.15 in East 8.0 mph 13.0 mph 75% 0.00 in 95.00 W/m2
07:25 40.9 °F 33.6 °F 30.15 in Calm   16.0 mph 75% 0.00 in 116.00 W/m2
07:30 40.9 °F 33.6 °F 30.15 in Calm   12.0 mph 75% 0.00 in 125.00 W/m2
07:35 41.0 °F 34.0 °F 30.16 in East 9.0 mph 15.0 mph 76% 0.00 in 149.00 W/m2
07:40 41.1 °F 34.1 °F 30.16 in Calm   18.0 mph 76% 0.00 in 158.00 W/m2
07:45 41.3 °F 34.0 °F 30.15 in Calm   13.0 mph 75% 0.00 in 167.00 W/m2
07:50 41.4 °F 34.1 °F 30.16 in ESE 9.0 mph 15.0 mph 75% 0.00 in 155.00 W/m2
07:55 41.5 °F 34.2 °F 30.16 in Calm   12.0 mph 75% 0.00 in 223.00 W/m2
08:00 41.6 °F 33.6 °F 30.16 in East 7.0 mph 12.0 mph 73% 0.00 in 192.00 W/m2
08:05 41.8 °F 33.8 °F 30.16 in Calm   12.0 mph 73% 0.00 in 227.00 W/m2
08:10 42.0 °F 34.3 °F 30.16 in ESE 9.0 mph 14.0 mph 74% 0.00 in 322.00 W/m2
08:15 42.2 °F 34.5 °F 30.15 in East 1.0 mph 13.0 mph 74% 0.00 in 297.00 W/m2
08:20 42.5 °F 35.2 °F 30.15 in ESE 1.0 mph 12.0 mph 75% 0.00 in 272.00 W/m2
08:25 42.7 °F 35.7 °F 30.15 in ESE 1.0 mph 11.0 mph 76% 0.00 in 216.00 W/m2
08:30 42.8 °F 35.4 °F 30.16 in Calm   6.0 mph 75% 0.00 in 378.00 W/m2
08:35 42.9 °F 35.2 °F 30.16 in Calm   7.0 mph 74% 0.00 in 390.00 W/m2
08:40 43.1 °F 35.7 °F 30.16 in Calm   8.0 mph 75% 0.00 in 417.00 W/m2
08:45 43.3 °F 35.6 °F 30.15 in Calm   11.0 mph 74% 0.00 in 429.00 W/m2
08:50 43.5 °F 36.5 °F 30.15 in ESE 6.0 mph 8.0 mph 76% 0.00 in 446.00 W/m2
08:52 43.6 °F 36.5 °F 30.15 in Calm   9.0 mph 76% 0.00 in 461.00 W/m2
08:57 43.8 °F 36.1 °F 30.15 in Calm   2.0 mph 74% 0.00 in 461.00 W/m2
09:02 44.0 °F 36.6 °F 30.15 in ESE 1.0 mph 5.0 mph 75% 0.00 in 422.00 W/m2
09:07 44.3 °F 36.2 °F 30.15 in ESE 6.0 mph 6.0 mph 73% 0.00 in 492.00 W/m2
09:12 44.5 °F 35.3 °F 30.15 in Calm   2.0 mph 70% 0.00 in 540.00 W/m2
09:17 44.8 °F 35.6 °F 30.15 in Calm   5.0 mph 70% 0.00 in 512.00 W/m2
09:22 45.1 °F 34.0 °F 30.15 in Calm     65% 0.00 in 364.00 W/m2
09:27 45.5 °F 35.9 °F 30.15 in Calm     69% 0.00 in 480.00 W/m2
09:32 45.8 °F 36.2 °F 30.15 in Calm   1.0 mph 69% 0.00 in 524.00 W/m2
09:37 46.2 °F 37.0 °F 30.15 in Calm   2.0 mph 70% 0.00 in 533.00 W/m2
09:42 46.5 °F 36.2 °F 30.15 in Calm   5.0 mph 67% 0.00 in 517.00 W/m2
09:47 46.9 °F 36.2 °F 30.15 in Calm   2.0 mph 66% 0.00 in 580.00 W/m2
09:52 47.4 °F 35.5 °F 30.15 in Calm   1.0 mph 63% 0.00 in 557.00 W/m2
09:57 47.9 °F 36.3 °F 30.15 in Calm   1.0 mph 64% 0.00 in 635.00 W/m2
10:02 48.3 °F 36.7 °F 30.15 in SE 7.0 mph 7.0 mph 64% 0.00 in 661.00 W/m2
10:07 48.7 °F 37.1 °F 30.15 in Calm     64% 0.00 in 554.00 W/m2
10:12 49.1 °F 38.2 °F 30.15 in Calm   4.0 mph 66% 0.00 in 689.00 W/m2
10:18 49.5 °F 39.0 °F 30.15 in SSW 3.0 mph 6.0 mph 67% 0.00 in 684.00 W/m2
10:23 49.8 °F 38.5 °F 30.14 in Calm   4.0 mph 65% 0.00 in 738.00 W/m2
10:28 50.3 °F 39.0 °F 30.15 in Calm   3.0 mph 65% 0.00 in 454.00 W/m2
10:33 50.6 °F 38.9 °F 30.14 in South 4.0 mph 6.0 mph 64% 0.00 in 747.00 W/m2
10:38 50.8 °F 37.8 °F 30.14 in South 7.0 mph 9.0 mph 61% 0.00 in 724.00 W/m2
10:43 51.1 °F 37.3 °F 30.14 in Calm   1.0 mph 59% 0.00 in 782.00 W/m2
10:48 51.5 °F 38.9 °F 30.14 in SSE 2.0 mph 6.0 mph 62% 0.00 in 775.00 W/m2
10:53 51.8 °F 38.4 °F 30.14 in Calm   2.0 mph 60% 0.00 in 807.00 W/m2
10:58 52.3 °F 39.7 °F 30.14 in SSW 4.0 mph 7.0 mph 62% 0.00 in 793.00 W/m2
11:03 52.8 °F 38.5 °F 30.14 in SW 2.0 mph 6.0 mph 58% 0.00 in 823.00 W/m2
11:08 53.2 °F 40.1 °F 30.14 in South 1.0 mph 9.0 mph 61% 0.00 in 816.00 W/m2
11:13 53.6 °F 39.2 °F 30.14 in SW 9.0 mph 9.0 mph 58% 0.00 in 814.00 W/m2
11:18 54.1 °F 40.5 °F 30.14 in SW 3.0 mph 6.0 mph 60% 0.00 in 828.00 W/m2
11:23 54.4 °F 39.5 °F 30.14 in Calm   4.0 mph 57% 0.00 in 837.00 W/m2
11:28 54.7 °F 41.1 °F 30.14 in SW 2.0 mph 4.0 mph 60% 0.00 in 867.00 W/m2
11:33 55.1 °F 41.0 °F 30.14 in SSE 4.0 mph 9.0 mph 59% 0.00 in 853.00 W/m2
11:38 55.3 °F 41.2 °F 30.14 in Calm     59% 0.00 in 863.00 W/m2
11:43 55.6 °F 42.0 °F 30.13 in SW 5.0 mph 5.0 mph 60% 0.00 in 830.00 W/m2
11:48 56.0 °F 41.5 °F 30.13 in SW 5.0 mph 7.0 mph 58% 0.00 in 833.00 W/m2
11:53 56.3 °F 43.0 °F 30.13 in Calm   3.0 mph 61% 0.00 in 856.00 W/m2
12:03 56.8 °F 41.8 °F 30.12 in SSW 6.0 mph 6.0 mph 57% 0.00 in 807.00 W/m2
12:08 57.1 °F 42.5 °F 30.13 in SSW 7.0 mph 9.0 mph 58% 0.00 in 870.00 W/m2
12:13 57.2 °F 40.7 °F 30.12 in Calm   2.0 mph 54% 0.00 in 861.00 W/m2
12:18 57.2 °F 43.0 °F 30.13 in SSW 2.0 mph 10.0 mph 59% 0.00 in 898.00 W/m2
12:23 57.4 °F 41.8 °F 30.12 in Calm   8.0 mph 56% 0.00 in 789.00 W/m2
12:28 57.5 °F 41.5 °F 30.12 in WSW 2.0 mph 4.0 mph 55% 0.00 in 816.00 W/m2
12:33 57.4 °F 40.9 °F 30.12 in Calm   3.0 mph 54% 0.00 in 789.00 W/m2
12:38 57.2 °F 40.2 °F 30.12 in West 1.0 mph 5.0 mph 53% 0.00 in 951.00 W/m2
12:43 57.2 °F 41.2 °F 30.12 in Calm   3.0 mph 55% 0.00 in 817.00 W/m2
12:48 57.6 °F 42.0 °F 30.12 in Calm   10.0 mph 56% 0.00 in 693.00 W/m2
12:53 58.0 °F 41.5 °F 30.12 in SW 3.0 mph 6.0 mph 54% 0.00 in 483.00 W/m2
12:58 58.1 °F 40.6 °F 30.12 in Calm   8.0 mph 52% 0.00 in 874.00 W/m2
13:03 58.2 °F 41.2 °F 30.12 in SSW 6.0 mph 11.0 mph 53% 0.00 in 819.00 W/m2
13:08 58.6 °F 42.0 °F 30.12 in Calm   3.0 mph 54% 0.00 in 812.00 W/m2
13:13 58.8 °F 41.2 °F 30.12 in Calm   7.0 mph 52% 0.00 in 974.00 W/m2
13:18 59.0 °F 40.9 °F 30.12 in SW 9.0 mph 12.0 mph 51% 0.00 in 967.00 W/m2
13:23 59.4 °F 41.8 °F 30.12 in Calm   9.0 mph 52% 0.00 in 881.00 W/m2
13:28 59.7 °F 40.5 °F 30.12 in South 4.0 mph 7.0 mph 49% 0.00 in 791.00 W/m2
13:33 59.8 °F 41.7 °F 30.12 in Calm   10.0 mph 51% 0.00 in 828.00 W/m2
13:38 60.0 °F 39.7 °F 30.12 in South 2.0 mph 2.0 mph 47% 0.00 in 772.00 W/m2
13:43 59.9 °F 42.2 °F 30.11 in Calm   9.0 mph 52% 0.00 in 882.00 W/m2
13:48 60.0 °F 42.3 °F 30.11 in South 2.0 mph 8.0 mph 52% 0.00 in 838.00 W/m2
13:54 60.3 °F 41.6 °F 30.11 in SW 5.0 mph 7.0 mph 50% 0.00 in 833.00 W/m2
13:59 60.6 °F 43.4 °F 30.11 in SW 2.0 mph 3.0 mph 53% 0.00 in 853.00 W/m2
14:04 60.9 °F 42.7 °F 30.11 in Calm   7.0 mph 51% 0.00 in 728.00 W/m2
14:09 60.7 °F 41.5 °F 30.11 in Calm   8.0 mph 49% 0.00 in 837.00 W/m2
14:14 60.4 °F 41.2 °F 30.11 in Calm   4.0 mph 49% 0.00 in 705.00 W/m2
14:19 60.0 °F 41.3 °F 30.11 in WSW 7.0 mph 10.0 mph 50% 0.00 in 691.00 W/m2
14:24 59.9 °F 41.2 °F 30.11 in WSW 1.0 mph 2.0 mph 50% 0.00 in 761.00 W/m2
14:29 60.0 °F 42.3 °F 30.10 in West 3.0 mph 9.0 mph 52% 0.00 in 761.00 W/m2
14:34 60.1 °F 43.9 °F 30.10 in Calm   4.0 mph 55% 0.00 in 708.00 W/m2
14:39 60.2 °F 42.0 °F 30.10 in Calm   3.0 mph 51% 0.00 in 673.00 W/m2
14:44 60.2 °F 43.0 °F 30.10 in Calm   1.0 mph 53% 0.00 in 622.00 W/m2
14:49 60.1 °F 41.4 °F 30.09 in Calm   3.0 mph 50% 0.00 in 631.00 W/m2
14:54 59.8 °F 41.7 °F 30.09 in Calm   5.0 mph 51% 0.00 in 626.00 W/m2
14:59 59.5 °F 41.9 °F 30.09 in Calm   3.0 mph 52% 0.00 in 691.00 W/m2
15:04 59.3 °F 41.7 °F 30.09 in NW 1.0 mph 5.0 mph 52% 0.00 in 612.00 W/m2
15:09 59.1 °F 42.0 °F 30.09 in Calm   4.0 mph 53% 0.00 in 621.00 W/m2
15:14 58.9 °F 40.8 °F 30.08 in Calm   4.0 mph 51% 0.00 in 742.00 W/m2
15:19 59.0 °F 41.9 °F 30.08 in Calm   4.0 mph 53% 0.00 in 779.00 W/m2
15:24 59.1 °F 42.0 °F 30.08 in Calm   3.0 mph 53% 0.00 in 668.00 W/m2
15:29 59.3 °F 41.7 °F 30.08 in Calm   6.0 mph 52% 0.00 in 566.00 W/m2
15:34 59.3 °F 41.2 °F 30.07 in Calm   3.0 mph 51% 0.00 in 680.00 W/m2
15:39 59.3 °F 41.2 °F 30.07 in Calm   4.0 mph 51% 0.00 in 640.00 W/m2
15:44 59.3 °F 42.2 °F 30.07 in Calm   3.0 mph 53% 0.00 in 682.00 W/m2
15:49 59.4 °F 41.3 °F 30.07 in NW 1.0 mph 3.0 mph 51% 0.00 in 666.00 W/m2
15:54 59.6 °F 43.0 °F 30.06 in Calm   2.0 mph 54% 0.00 in 715.00 W/m2
15:59 59.8 °F 42.2 °F 30.06 in Calm   3.0 mph 52% 0.00 in 631.00 W/m2
16:04 59.9 °F 41.2 °F 30.06 in Calm   3.0 mph 50% 0.00 in 729.00 W/m2
16:09 60.0 °F 42.8 °F 30.06 in Calm   4.0 mph 53% 0.00 in 605.00 W/m2
16:14 60.1 °F 42.4 °F 30.06 in NW 2.0 mph 6.0 mph 52% 0.00 in 497.00 W/m2
16:19 60.1 °F 41.9 °F 30.06 in WSW 3.0 mph 7.0 mph 51% 0.00 in 555.00 W/m2
16:24 60.2 °F 42.0 °F 30.06 in Calm   4.0 mph 51% 0.00 in 512.00 W/m2
16:29 60.2 °F 41.0 °F 30.06 in WNW 2.0 mph 4.0 mph 49% 0.00 in 388.00 W/m2
16:34 60.0 °F 41.8 °F 30.06 in NW 1.0 mph 4.0 mph 51% 0.00 in 353.00 W/m2
16:39 59.9 °F 42.7 °F 30.06 in Calm   2.0 mph 53% 0.00 in 457.00 W/m2
16:44 59.9 °F 43.7 °F 30.06 in West 1.0 mph 5.0 mph 55% 0.00 in 424.00 W/m2
16:49 59.9 °F 41.8 °F 30.06 in WSW 3.0 mph 6.0 mph 51% 0.00 in 376.00 W/m2
16:54 59.9 °F 41.2 °F 30.06 in Calm   3.0 mph 50% 0.00 in 311.00 W/m2
16:59 59.9 °F 40.7 °F 30.06 in Calm   2.0 mph 49% 0.00 in 297.00 W/m2
17:04 59.9 °F 41.8 °F 30.06 in Calm   1.0 mph 51% 0.00 in 364.00 W/m2
17:09 59.8 °F 41.1 °F 30.06 in WSW 2.0 mph 7.0 mph 50% 0.00 in 381.00 W/m2
17:14 59.7 °F 41.0 °F 30.06 in Calm   5.0 mph 50% 0.00 in 350.00 W/m2
17:19 59.6 °F 41.5 °F 30.06 in WSW 1.0 mph 6.0 mph 51% 0.00 in 392.00 W/m2
17:24 59.5 °F 40.9 °F 30.06 in Calm   4.0 mph 50% 0.00 in 388.00 W/m2
17:29 59.4 °F 41.3 °F 30.05 in Calm   3.0 mph 51% 0.00 in 330.00 W/m2
17:34 59.3 °F 43.2 °F 30.06 in Calm   4.0 mph 55% 0.00 in 229.00 W/m2
17:39 59.2 °F 41.6 °F 30.06 in Calm   3.0 mph 52% 0.00 in 199.00 W/m2
17:44 59.1 °F 42.5 °F 30.06 in Calm   1.0 mph 54% 0.00 in 174.00 W/m2
17:49 59.0 °F 43.8 °F 30.05 in Calm   1.0 mph 57% 0.00 in 171.00 W/m2
17:54 58.9 °F 42.8 °F 30.05 in Calm     55% 0.00 in 163.00 W/m2
18:00 58.7 °F 43.5 °F 30.05 in Calm     57% 0.00 in 155.00 W/m2
18:05 58.6 °F 44.3 °F 30.06 in Calm     59% 0.00 in 142.00 W/m2
18:10 58.4 °F 44.1 °F 30.05 in Calm     59% 0.00 in 139.00 W/m2
18:15 58.2 °F 45.3 °F 30.05 in Calm   2.0 mph 62% 0.00 in 142.00 W/m2
18:20 58.1 °F 44.7 °F 30.05 in Calm     61% 0.00 in 130.00 W/m2
18:26 57.9 °F 44.1 °F 30.05 in Calm     60% 0.00 in 120.00 W/m2
18:31 57.7 °F 45.6 °F 30.05 in Calm   2.0 mph 64% 0.00 in 118.00 W/m2
18:36 57.6 °F 45.1 °F 30.05 in Calm   2.0 mph 63% 0.00 in 105.00 W/m2
18:41 57.5 °F 44.6 °F 30.04 in Calm   2.0 mph 62% 0.00 in 90.00 W/m2
18:46 57.3 °F 44.0 °F 30.04 in Calm     61% 0.00 in 74.00 W/m2
18:56 57.0 °F 44.1 °F 30.04 in Calm     62% 0.00 in 51.00 W/m2
19:01 56.8 °F 44.8 °F 30.04 in Calm     64% 0.00 in 46.00 W/m2
19:06 56.7 °F 44.7 °F 30.03 in Calm     64% 0.00 in 39.00 W/m2
19:11 56.5 °F 45.3 °F 30.03 in Calm     66% 0.00 in 30.00 W/m2
19:16 56.3 °F 45.1 °F 30.03 in Calm     66% 0.00 in 21.00 W/m2
19:21 56.0 °F 45.6 °F 30.03 in Calm     68% 0.00 in 16.00 W/m2
19:26 55.8 °F 45.4 °F 30.03 in Calm     68% 0.00 in 12.00 W/m2
19:36 55.2 °F 45.2 °F 30.03 in Calm     69% 0.00 in 5.00 W/m2
19:41 54.8 °F 44.8 °F 30.02 in Calm     69% 0.00 in 0.00 W/m2
19:45 54.5 °F 45.3 °F 30.03 in Calm     71% 0.00 in 0.00 W/m2
19:50 54.3 °F 45.5 °F 30.02 in Calm     72% 0.00 in 0.00 W/m2
19:55 54.0 °F 45.2 °F 30.02 in Calm     72% 0.00 in 0.00 W/m2
20:00 53.7 °F 45.3 °F 30.02 in Calm     73% 0.00 in 0.00 W/m2
20:05 53.4 °F 45.3 °F 30.03 in Calm     74% 0.00 in 0.00 W/m2
20:10 53.1 °F 45.0 °F 30.03 in Calm     74% 0.00 in 0.00 W/m2
20:15 52.8 °F 44.8 °F 30.03 in Calm     74% 0.00 in 0.00 W/m2
20:20 52.5 °F 44.8 °F 30.03 in Calm     75% 0.00 in 0.00 W/m2
20:21 52.5 °F 44.8 °F 30.03 in Calm     75% 0.00 in 0.00 W/m2
20:26 52.2 °F 44.9 °F 30.03 in Calm     76% 0.00 in 0.00 W/m2
20:31 52.0 °F 44.7 °F 30.03 in Calm     76% 0.00 in 0.00 W/m2
20:36 51.7 °F 44.4 °F 30.03 in Calm     76% 0.00 in 0.00 W/m2
20:41 51.6 °F 44.0 °F 30.03 in Calm     75% 0.00 in 0.00 W/m2
20:46 51.5 °F 43.8 °F 30.04 in Calm     75% 0.00 in 0.00 W/m2
20:51 51.4 °F 43.8 °F 30.03 in Calm     75% 0.00 in 0.00 W/m2
20:56 51.3 °F 43.7 °F 30.03 in Calm     75% 0.00 in 0.00 W/m2
21:01 51.2 °F 43.6 °F 30.04 in Calm     75% 0.00 in 0.00 W/m2
21:03 51.2 °F 43.6 °F 30.04 in Calm     75% 0.00 in 0.00 W/m2
21:08 51.1 °F 43.8 °F 30.04 in Calm     76% 0.00 in 0.00 W/m2
21:13 51.0 °F 43.7 °F 30.04 in Calm   2.0 mph 76% 0.00 in 0.00 W/m2
21:19 50.8 °F 43.2 °F 30.04 in Calm   3.0 mph 75% 0.00 in 0.00 W/m2
21:24 50.6 °F 43.3 °F 30.04 in SSE 1.0 mph 5.0 mph 76% 0.00 in 0.00 W/m2
21:34 50.5 °F 43.6 °F 30.04 in Calm   6.0 mph 77% 0.00 in 0.00 W/m2
21:39 50.5 °F 43.9 °F 30.03 in ESE 2.0 mph 6.0 mph 78% 0.00 in 0.00 W/m2
21:44 50.4 °F 44.1 °F 30.03 in ESE 1.0 mph 6.0 mph 79% 0.00 in 0.00 W/m2
21:46 50.4 °F 43.8 °F 30.03 in East 4.0 mph 7.0 mph 78% 0.00 in 0.00 W/m2
21:51 50.3 °F 43.7 °F 30.03 in Calm   7.0 mph 78% 0.00 in 0.00 W/m2
21:56 50.3 °F 43.7 °F 30.03 in Calm   4.0 mph 78% 0.00 in 0.00 W/m2
22:01 50.3 °F 44.0 °F 30.03 in East 1.0 mph 5.0 mph 79% 0.00 in 0.00 W/m2
22:06 50.3 °F 44.0 °F 30.03 in East 5.0 mph 5.0 mph 79% 0.00 in 0.00 W/m2
22:11 50.3 °F 43.7 °F 30.03 in ESE 4.0 mph 7.0 mph 78% 0.00 in 0.00 W/m2
22:16 50.3 °F 43.7 °F 30.03 in ESE 2.0 mph 7.0 mph 78% 0.00 in 0.00 W/m2
22:21 50.4 °F 44.1 °F 30.03 in ESE 1.0 mph 7.0 mph 79% 0.00 in 0.00 W/m2
22:26 50.5 °F 44.2 °F 30.03 in Calm   5.0 mph 79% 0.00 in 0.00 W/m2
22:31 50.5 °F 44.2 °F 30.03 in ESE 1.0 mph 2.0 mph 79% 0.00 in 0.00 W/m2
22:36 50.6 °F 44.3 °F 30.03 in ESE 4.0 mph 5.0 mph 79% 0.00 in 0.00 W/m2
22:41 50.6 °F 44.3 °F 30.03 in ESE 4.0 mph 4.0 mph 79% 0.00 in 0.00 W/m2
22:46 50.6 °F 44.0 °F 30.03 in ESE 4.0 mph 7.0 mph 78% 0.00 in 0.00 W/m2
22:51 50.7 °F 44.1 °F 30.03 in Calm   6.0 mph 78% 0.00 in 0.00 W/m2
22:56 50.7 °F 44.1 °F 30.03 in Calm   6.0 mph 78% 0.00 in 0.00 W/m2
23:02 50.8 °F 44.2 °F 30.03 in ESE 1.0 mph 4.0 mph 78% 0.00 in 0.00 W/m2
23:07 50.8 °F 44.2 °F 30.03 in Calm   6.0 mph 78% 0.00 in 0.00 W/m2
23:12 50.9 °F 44.3 °F 30.03 in Calm   4.0 mph 78% 0.00 in 0.00 W/m2
23:17 50.8 °F 44.2 °F 30.03 in East 2.0 mph 5.0 mph 78% 0.00 in 0.00 W/m2
23:22 50.9 °F 44.3 °F 30.03 in ESE 4.0 mph 6.0 mph 78% 0.00 in 0.00 W/m2
23:27 50.9 °F 44.3 °F 30.03 in East 4.0 mph 8.0 mph 78% 0.00 in 0.00 W/m2
23:32 50.9 °F 44.3 °F 30.03 in ESE 5.0 mph 6.0 mph 78% 0.00 in 0.00 W/m2
23:37 50.8 °F 44.2 °F 30.03 in Calm   5.0 mph 78% 0.00 in 0.00 W/m2
23:42 50.9 °F 44.3 °F 30.02 in ESE 4.0 mph 5.0 mph 78% 0.00 in 0.00 W/m2
23:47 50.8 °F 44.2 °F 30.02 in Calm   7.0 mph 78% 0.00 in 0.00 W/m2
23:52 50.8 °F 43.9 °F 30.02 in ESE 4.0 mph 6.0 mph 77% 0.00 in 0.00 W/m2
23:57 50.7 °F 43.8 °F 30.02 in ESE 1.0 mph 4.0 mph 77% 0.00 in 0.00 W/m2
Foresthill Weather
 WU-history PHP script courtesy of   Juneau County Weather.
powered by Cumulus v1.9.3 (1059)
Ambient Weather VWS v14.00
Top Contact Website Map Copyright © 2007 - 2018 Foresthillweather.com Never base important decisions on this or any weather information obtained from the Internet